Weather in Bigila

Russia / Tyumen Oblast     56°24′12″N   66°39′21″E
temp.,
°C
wind,
m/s
gust,
m/s
humid.,
%
clouds,
%
prec.,
mm/h
press.,
hPa
HPBL,
m
19 january, tue
tue1923:00−22wsw48960 0.0 1019143
02:00−22w34960 0.0 102063
05:00−24w23978 0.0 102222
08:00−25w23999 0.0 102220
11:00−23wnw119728 0.0 102424
14:00−20ssw009364 0.0 102437
17:00−21ese129075 0.0 102520
20:00−21se3388100 0.0 102462
20 january, wed
wed2023:00−20ese4788100 0.0 1024157
02:00−19ese5986100 0.0 1022250
05:00−19ese51187100 0.0 1021277
08:00−18ese71385100 0.0 1018341
11:00−17ese81489100 0.1 1016416
14:00−16ese71295100 1.1 1013739
17:00−16se5995100 2.4 1012648
20:00−17sse379699 0.3 1011235
21 january, thu
thu2123:00−18sw489799 0.3 1010228
02:00−17sw51196100 0.1 1010336
05:00−16sw61194100 0.2 1010480
08:00−17wsw61195100 0.3 1010514
11:00−18wsw61095100 0.6 1011505
14:00−17wsw5994100 0.2 1011518
17:00−19wsw51096100 0.3 1011396
20:00−22w4999100 0.1 1012200
22 january, fri
fri2223:00−24wsw3510099 0.1 101395
02:00−25wsw3410098 0.0 101371
05:00−25wsw3510099 0.1 101490
08:00−25wsw34100100 0.1 101584
11:00−23wsw3598100 0.1 1015189
14:00−21w2397100 0.0 1016234
17:00−22w1199100 0.1 101620
20:00−23n1199100 0.1 101820
23 january, sat
sat2323:00−23nne2398100 0.2 1018117
02:00−26n3598100 0.1 1020174
05:00−28n3697100 0.1 1022213
08:00−30nnw369793 0.0 1026195
11:00−32nnw369758 0.0 1028188
14:00−30nw35940 0.0 1031294
17:00−32nw339816 0.0 103329
20:00−34nnw22990 0.0 103619